Find Starlink 35465

NORAD ID: 65871 Int'l Des: 2025-223 Owner: SPXS Country: US Constellation: starlink operational
LEOCIRCULAR

Current View

Loading 3D Globe...

About Starlink 35465

Description loading...

Upcoming Passes

Passes for default location (London). Set your location on the main map for personalized predictions.

Altitude History

Loading altitude history...

Two-Line Element Set

1 65871U 25223T 26146.13833661 .00023038 00000-0 78722-3 0 9996
2 65871 53.1615 294.4101 0000621 182.7421 177.3576 15.30213379 36060
Epoch: May 26, 2026 • Age: 9 hours

Current Status

Altitude 487.3 km
Velocity 7.62 km/s
Sub-Earth Point -36.92°S, 173.22°W
Launch Date Oct 3, 2025
Age 0.6 years
Type internet

Technical Details

Classification Payload
Mass 575.00 kg
Dry Mass 530.00 kg
Total Mass 575.00 kg
Length 0.30 m
Diameter 4.10 m
Span 29.00 m
Shape Box + pan
Manufacturer SPXS
Bus Type Starlink V2MO
Phase Status In Orbit
Owner/State SPXS/US

Most Searched